Location: Unspecified
(0.0000°N, 0.0000°E)
Time: 22:08:25
(UTC+00:00)

Explorer 11/Cluster Stage 4 - All Passes

Search period start: 06 July 2015 00:00
Search period end: 16 July 2015 00:00
Orbit: 468 x 1272 km, 28.8° (Epoch: 05 July)

Date Brightness Start Highest point End Pass type
(mag) Time Alt. Az. Time Alt. Az. Time Alt. Az.
06 Jul - 01:34:55 10° WSW 01:42:56 75° NNW 01:49:39 10° NE visible
06 Jul - 03:27:03 10° WNW 03:32:08 20° NNW 03:36:24 10° NNE visible
06 Jul - 12:37:50 10° NW 12:41:31 50° NNE 12:45:49 10° ESE daylight
06 Jul - 14:26:31 10° W 14:30:10 25° SSW 14:34:28 10° SSE daylight
06 Jul - 21:49:24 10° SSW 21:54:03 16° SSE 21:58:57 10° ESE night (unlit)
06 Jul - 23:36:38 10° SW 23:44:29 44° SSE 23:51:47 10° E night (unlit)
07 Jul - 01:26:08 10° WSW 01:34:10 63° NNW 01:41:00 10° NE visible
07 Jul - 03:18:53 10° WNW 03:23:31 17° NNW 03:27:26 10° N visible
07 Jul - 12:29:19 10° NW 12:33:00 71° NNE 12:37:16 10° ESE daylight
07 Jul - 14:18:39 10° WSW 14:21:45 19° SSW 14:25:14 10° SSE daylight
07 Jul - 21:40:10 10° SSW 21:45:27 19° SSE 21:51:04 10° ESE night (unlit)
07 Jul - 23:27:39 10° SW 23:35:43 53° SSE 23:43:20 10° ENE night (unlit)
08 Jul - 01:17:25 10° WSW 01:25:23 53° NNW 01:32:16 10° NE visible
08 Jul - 03:10:51 10° WNW 03:14:54 15° NNW 03:18:21 10° N visible
08 Jul - 10:34:44 10° N 10:36:08 12° NNE 10:37:40 10° NE daylight
08 Jul - 12:20:51 10° WNW 12:24:30 81° SSW 12:28:38 10° ESE daylight
08 Jul - 14:11:04 10° SW 14:13:22 14° SSW 14:15:46 10° S daylight
08 Jul - 21:31:00 10° SSW 21:36:49 22° SSE 21:43:00 10° ESE night (unlit)
08 Jul - 23:18:42 10° SW 23:26:55 63° SSE 23:34:48 10° ENE night (unlit)
09 Jul - 01:08:47 10° W 01:16:35 45° NNW 01:23:29 10° NE visible
09 Jul - 03:03:01 10° NW 03:06:19 13° NNW 03:09:08 10° N visible
09 Jul - 10:25:21 10° NNW 10:27:40 16° NNE 10:30:04 10° ENE daylight
09 Jul - 12:12:28 10° WNW 12:16:01 55° SSW 12:19:55 10° SE daylight
09 Jul - 21:21:55 10° SSW 21:28:08 26° SSE 21:34:48 10° E night (unlit)
09 Jul - 23:09:49 10° SW 23:18:06 74° SSE 23:26:10 10° ENE night (unlit)
10 Jul - 01:00:14 10° W 01:07:48 38° NNW 01:14:36 10° NE night (unlit)
10 Jul - 02:55:30 10° NW 02:57:46 11° NNW 02:59:36 10° N visible
10 Jul - 10:16:16 10° NNW 10:19:13 22° NNE 10:22:07 10° E daylight
10 Jul - 12:04:09 10° W 12:07:32 38° SSW 12:11:09 10° SE daylight
10 Jul - 21:12:54 10° SSW 21:19:24 30° SSE 21:26:29 10° E visible
10 Jul - 23:01:00 10° WSW 23:09:15 86° SSE 23:17:28 10° ENE night (unlit)
11 Jul - 00:51:45 10° W 00:59:02 32° NNW 01:05:41 10° NNE night (unlit)
11 Jul - 10:07:21 10° NW 10:10:45 31° NNE 10:14:00 10° E daylight
11 Jul - 11:55:56 10° W 11:59:04 27° SSW 12:02:17 10° SSE daylight
11 Jul - 19:19:41 10° SSE 19:20:33 10° SSE 19:21:48 10° SSE visible
11 Jul - 21:03:55 10° SSW 21:10:39 35° SSE 21:18:04 10° E visible
11 Jul - 22:52:14 10° WSW 23:00:24 81° NNW 23:08:40 10° NE night (unlit)
12 Jul - 00:43:22 10° W 00:50:17 28° NNW 00:56:41 10° NNE night (unlit)
12 Jul - 09:58:30 10° NW 10:02:16 44° NNE 10:05:44 10° ESE daylight
12 Jul - 11:47:52 10° WSW 11:50:36 19° SSW 11:53:18 10° SSE daylight
12 Jul - 19:09:42 10° S 19:12:00 12° SSE 19:14:46 10° SE visible
12 Jul - 20:55:01 10° SW 21:01:52 41° SSE 21:09:32 10° E visible
12 Jul - 22:43:34 10° WSW 22:51:33 69° NNW 22:59:48 10° NE night (unlit)
13 Jul - 00:35:06 10° WNW 00:41:34 24° NNW 00:47:37 10° NNE night (unlit)
13 Jul - 08:03:17 10° N 08:04:51 12° NNE 08:06:26 10° NE daylight
13 Jul - 09:49:44 10° NW 09:53:46 65° NNE 09:57:23 10° ESE daylight
13 Jul - 11:40:01 10° WSW 11:42:07 14° SSW 11:44:08 10° S daylight
13 Jul - 19:00:20 10° S 19:03:25 14° SSE 19:07:04 10° ESE visible
13 Jul - 20:46:11 10° SW 20:53:03 48° SSE 21:00:55 10° ENE visible
13 Jul - 22:34:57 10° WSW 22:42:42 58° NNW 22:50:52 10° NE night (unlit)
14 Jul - 00:26:57 10° WNW 00:32:53 21° NNW 00:38:27 10° NNE night (unlit)
14 Jul - 07:53:29 10° NNW 07:56:26 16° NNE 07:59:09 10° ENE daylight
14 Jul - 09:41:02 10° WNW 09:45:15 87° SW 09:48:56 10° ESE daylight
14 Jul - 11:32:44 10° SW 11:33:38 11° SSW 11:34:24 10° SSW daylight
14 Jul - 18:51:09 10° S 18:54:48 16° SSE 18:59:05 10° ESE visible
14 Jul - 20:37:23 10° SW 20:44:14 57° SSE 20:52:12 10° ENE visible
14 Jul - 22:26:25 10° WSW 22:33:53 49° NNW 22:41:51 10° NE night (unlit)
15 Jul - 00:18:55 10° WNW 00:24:13 18° NNW 00:29:13 10° NNE night (unlit)
15 Jul - 07:44:06 10° NNW 07:47:58 22° NNE 07:51:22 10° ENE daylight
15 Jul - 09:32:23 10° WNW 09:36:42 61° SSW 09:40:25 10° SE daylight
15 Jul - 18:42:05 10° SSW 18:46:09 18° SSE 18:50:56 10° ESE visible
15 Jul - 20:28:39 10° SW 20:35:25 67° SSE 20:43:25 10° ENE visible
15 Jul - 22:17:59 10° W 22:25:06 41° NNW 22:32:46 10° NE night (unlit)
